Regional Weather Roundup
Issued by NWS

Home | Current Version | Previous Version | Graphics & Text | Print | Product List | Glossary Off
Versions: 1 2 3 4 5 6 7 8 9 10 11 12 13 14 15 16 17 18 19 20 21 22 23 24 25 26 27 28 29 30 31 32 33 34 35 36 37 38 39 40 41 42 43 44 45 46 47 48 49 50

000
ASUS43 KDTX 232210
RWRMI
MICHIGAN HOURLY REGIONAL WEATHER ROUNDUP
NATIONAL WEATHER SERVICE DETROIT/PONTIAC MI
600 PM EDT WED JUL 23 2014

NOTE: "FAIR" INDICATES FEW OR NO CLOUDS BELOW 12,000 FEET WITH NO
SIGNIFICANT WEATHER AND/OR OBSTRUCTION TO VISIBILITY.

MIZ047>049-052>055-059>063-066>070-074>076-081>083-232300-
SOUTHEAST LOWER MICHIGAN

CITY           SKY/WX    TMP DP  RH WIND       PRES   REMARKS
ADRIAN         CLOUDY    74  56  53 NE13      30.05S
ALMA           PTSUNNY   69  54  58 NW12      30.09S
ANN ARBOR      PTSUNNY   73  55  53 NE10      30.04F
BAD AXE        SUNNY     65  50  57 N12G21    30.09R
DETROIT CITY   PTSUNNY   72  54  53 N13G21    30.04F
DETROIT        PTSUNNY   71  55  56 N12       30.04S
FLINT          PTSUNNY   73  56  54 N10       30.06S
GROSSE ILE     CLOUDY    70  57  64 N12       30.03S
HILLSDALE      MOSUNNY   73  57  57 NE7       30.05F
HOWELL         PTSUNNY   71  56  60 N8        30.05F

CITY           SKY/WX    TMP DP  RH WIND       PRES   REMARKS
JACKSON        PTSUNNY   74  58  57 N7        30.05F
LAMBERTVILLE   CLOUDY    73  57  56 N12       30.03S
LANSING        SUNNY     73  55  53 N10       30.07S
LAPEER         NOT AVBL
MASON          CLOUDY    71  56  59 N8        30.06S
MONROE         CLOUDY    72  57  60 N9        30.02S
MT. CLEMENS    PTSUNNY   69  55  60 N16       30.03F
PONTIAC        PTSUNNY   71  54  54 NE12      30.05S
PORT HOPE        N/A     67  55  65 CALM      30.07F
PORT HURON     MOSUNNY   64  55  72 N13G18    30.06F
TRI CITIES     CLOUDY    71  58  63 NE12      30.08S
YPSILANTI      PTSUNNY   77  54  44 N12       30.04F
$$
MIZ043>046-050>051-056>058-064>065-071>073-077>080-232300-
SOUTHWEST LOWER MICHIGAN

CITY           SKY/WX    TMP DP  RH WIND       PRES   REMARKS
BATTLE CREEK   MOSUNNY   74  55  51 N10       30.07F
BENTON HARBOR  SUNNY     65  54  67 VRB7G22   30.11S
BIG RAPIDS     PTSUNNY   67  53  59 NE7G18    30.11F
COLDWATER      MOSUNNY   75  55  49 N9        30.05F
HOLLAND        SUNNY     70  58  65 NW12      30.10S
GRAND RAPIDS   PTSUNNY   76  55  48 N8        30.08S
KALAMAZOO      MOSUNNY   77  55  46 N9        30.06F
MARSHALL       MOSUNNY   73  56  54 N7        30.06S
MUSKEGON       MOSUNNY   73  58  59 NW8       30.09F
$$
MIZ016>042-232300-
NORTHERN LOWER MICHIGAN

CITY           SKY/WX    TMP DP  RH WIND       PRES   REMARKS
ALPENA         SUNNY     71  49  45 N14       30.10S
BEAVER ISLAND  SUNNY     69  47  44 N9G20     30.15F
BELLAIRE       MOSUNNY   69  49  48 N5        30.13F
CADILLAC       PTSUNNY   65  54  65 N3G18     30.13S
CHARLEVOIX     SUNNY     65  55  68 W10       30.18S
FRANKFORT      MOCLDY    66  52  61 N7        30.16S
GAYLORD        MOSUNNY   66  50  56 VRB7G17   30.13F
GRAYLING       CLOUDY    69  54  58 NW7       30.13F
HARBOR SPRINGS CLOUDY    69  50  51 NE7       30.13F
HOUGHTON LAKE  CLOUDY    66  54  65 N8        30.12F
MANISTEE       PTSUNNY   66  50  55 N8G18     30.16R
OSCODA         MOSUNNY   71  47  42 N12G24    30.08S
PELLSTON       CLOUDY    69  50  50 NE9       30.14F
TRAVERSE CITY  PTSUNNY   68  48  48 N10G18    30.13F
$$
MIZ007>008-015-232300-
EASTERN UPPER MICHIGAN

CITY           SKY/WX    TMP DP  RH WIND       PRES   REMARKS
KINROSS        SUNNY     64  52  63 NW18G26   30.14S
MACKINAC ISLAN SUNNY     68  49  50 N13G18    30.13S
NEWBERRY       SUNNY     64  48  54 N15G23    30.17S
S. S. MARIE    MOSUNNY   64  49  57 NW16G23   30.14F
$$
MIZ004>006-011>014-085-232300-
CENTRAL UPPER MICHIGAN

CITY           SKY/WX    TMP DP  RH WIND       PRES   REMARKS
MANISTIQUE     SUNNY     70  48  45 N14       30.17S
ESCANABA       SUNNY     70  45  40 N13G18    30.18S
MENOMINEE      SUNNY     70  48  46 E12       30.17F
SAWYER-GWINN   MOSUNNY   66  45  45 NE14      30.22F
$$
MIZ001>003-009>011-084-232300-
WESTERN UPPER MICHIGAN

CITY           SKY/WX    TMP DP  RH WIND       PRES   REMARKS
IRON MOUNTAIN  MOSUNNY   74  46  36 N12       30.18F
HOUGHTON       SUNNY     69  44  40 NW6       30.21F
COPPER HARBOR    N/A     63  53  70 N12       30.20F
$$

ABBREVIATIONS USED IN REMARKS
   TC - TEMPERATURE IN CELSIUS
  WCI - WIND CHILL INDEX
   HX - HEAT INDEX
  VSB - VISIBILITY




USA.gov is the U.S. government's official web portal to all federal, state and local government web resources and services.